IRIDIUM 54 [P]

Last updated on Sun Apr 28 2019 04:05:02 GMT+0100 (British Summer Time)

1 25171U 98010C 19117.90134704 .01686802 -15101-5 93533-3 0 9992 2 25171 86.4034 65.3758 0369485 150.3321 211.9474 15.50683951109536

Satellite not in orbit